SCP
0 0 0 1 1 1 1 1 1 0 0 0 0 0 0 0 0 0 0 0 0 0 0 0 0 0 0 0 0 0 0 0 0 0 0 0 0 0 0 0 0 0 0
0 0 0 1 1 1 1 1 1 0 0 0 0 0 0 0 0 0 0 0 0 0 0 0 0 0 0 0 0 0 0 0 0 0 0 0 0 0 0 0 0 0 0
0 0 0 0 1 1 1 1 1 0 0 0 0 0 0 0 0 0 0 0 0 0 0 0 0 0 0 0 0 0 0 0 0 0 0 0 0 0 0 0 0 0 0
0 0 0 0 1 1 1 1 1 1 0 0 0 0 0 0 0 0 0 0 0 0 0 0 0 0 0 0 0 0 0 0 0 0 0 0 0 0 0 0 0 0 0
0 0 0 0 1 1 1 1 1 1 1 0 0 0 0 0 0 0 0 0 0 0 0 0 0 0 0 0 0 0 0 0 0 0 0 0 0 0 0 0 0 0 0
0 0 0 0 0 1 1 1 1 1 1 1 0 0 0 0 0 0 0 0 0 0 0 0 0 0 0 0 0 0 0 0 0 0 0 0 0 0 0 0 0 0 0
0 0 0 0 0 1 1 1 1 1 1 1 0 0 0 0 0 0 0 0 0 0 0 0 0 0 0 0 0 0 0 0 0 0 0 0 0 0 0 0 0 0 0
0 0 0 0 0 1 1 1 1 1 1 1 0 0 0 0 0 0 0 0 0 0 0 0 0 0 0 0 0 0 0 0 0 0 0 0 0 0 0 0 0 0 0
0 0 0 0 0 0 1 1 1 1 1 1 0 0 0 0 0 0 0 0 0 0 0 0 0 0 0 0 0 0 0 0 0 0 0 0 0 0 0 0 0 0 0
0 0 0 0 0 0 0 0 1 1 1 1 0 0 0 0 0 0 0 0 0 0 0 0 0 0 0 0 0 0 0 0 0 0 0 0 0 0 0 0 0 0 0
0 0 0 0 0 0 0 0 0 0 0 0 0 0 0 0 0 0 0 0 0 0 0 0 0 0 0 0 0 0 0 0 0 0 0 0 0 0 0 0 0 0 0
0 0 0 0 0 0 0 0 0 0 0 0 0 0 0 0 0 0 0 0 0 0 0 0 0 0 0 0 0 0 0 0 0 0 0 0 0 0 0 0 0 0 0
0 0 0 0 0 0 0 0 0 0 0 0 0 0 0 0 0 0 0 0 0 0 0 0 0 0 0 0 0 0 0 0 0 0 0 0 0 0 0 0 0 0 0
0 0 0 0 0 0 0 0 0 0 0 0 0 0 0 0 0 0 0 0 0 0 0 0 0 0 0 0 0 0 0 0 0 0 0 0 0 0 0 0 0 0 0
0 0 0 0 0 0 0 0 0 0 0 0 0 0 0 0 0 0 0 0 0 0 0 0 0 0 0 0 0 0 0 0 0 0 0 0 0 0 0 0 0 0 0
0 0 0 0 0 0 0 0 0 0 0 0 0 0 0 0 0 0 0 0 0 0 0 0 0 0 0 0 0 0 0 0 0 0 0 0 0 0 0 0 0 0 0
0 0 0 0 0 0 0 0 0 0 0 0 0 0 0 0 0 0 0 0 0 0 0 0 0 0 0 0 0 0 0 0 0 0 0 0 0 0 0 0 0 0 0
0 0 0 0 0 0 0 0 0 0 0 0 0 0 0 0 0 0 0 0 0 0 0 0 0 0 0 0 0 0 0 0 0 0 0 0 0 0 0 0 0 0 0
0 0 0 0 0 0 0 0 0 0 0 0 0 0 0 0 0 0 0 0 0 0 0 0 0 0 0 0 0 0 0 0 0 0 0 0 0 0 0 0 0 0 0
0 0 0 0 0 0 0 0 0 0 0 0 0 0 0 0 0 0 0 0 0 0 0 0 0 0 0 0 0 0 0 0 0 0 0 0 0 0 0 0 0 0 0
0 0 0 0 0 0 0 0 0 0 0 0 0 0 0 0 0 0 0 0 0 0 0 0 0 0 0 0 0 0 0 0 0 0 0 0 0 0 0 0 0 0 0
0 0 0 0 0 0 0 0 0 0 0 0 0 0 0 0 0 0 0 0 0 0 0 0 0 0 0 0 0 0 0 0 0 0 0 0 0 0 0 0 0 0 0
0 0 0 0 0 0 0 0 0 0 0 0 0 0 0 0 0 0 0 0 0 0 0 0 0 0 0 0 0 0 0 0 0 0 0 0 0 0 0 0 0 0 0
0 0 0 0 0 0 0 0 0 0 0 0 0 0 0 0 0 0 0 0 0 0 0 0 0 0 0 0 0 0 0 0 0 0 0 0 0 0 0 0 0 0 0
0 0 0 0 0 0 0 0 0 0 0 0 0 0 0 0 0 0 0 0 0 0 0 0 0 0 0 0 0 0 0 0 0 0 0 0 0 0 0 0 0 0 0
0 0 0 0 0 0 0 0 0 0 0 0 0 0 0 0 0 0 0 0 0 0 0 0 0 0 0 0 0 0 0 0 0 0 0 0 0 0 0 0 0 0 0
Wind_Speed
3 4 8 9 10 10 10 10 10 11 11 11 12 12 12 12 12 12 11 11 11 10 10 10 10 11 11 11 12 11 11 11 11 11 11 11 11 11 10 10 9 6 10
6 6 9 10 10 11 11 10 10 10 11 11 11 11 11 11 11 11 11 10 10 10 10 11 10 10 10 11 11 10 10 10 10 10 9 9 9 9 10 9 9 6 9
7 6 8 10 10 10 11 10 10 10 10 10 10 11 11 11 11 10 10 10 10 10 10 10 10 10 9 9 9 9 9 9 9 9 8 4 5 8 9 9 9 9 8
8 6 7 9 10 10 11 11 10 10 10 9 10 10 10 10 10 10 10 10 10 10 10 9 9 9 9 8 8 8 8 9 8 8 4 3 3 6 8 8 8 8 8
6 5 6 9 10 10 10 10 10 10 9 10 10 10 10 10 10 10 10 9 9 9 9 9 9 8 8 7 7 7 8 8 8 6 3 3 2 5 6 6 6 6 6
5 4 6 9 10 10 10 9 9 10 10 10 9 9 9 10 9 9 9 9 8 8 8 8 8 7 7 6 6 6 7 8 6 4 3 2 2 4 5 5 5 5 5
5 4 5 8 9 10 9 9 9 9 9 9 9 9 9 9 9 8 8 8 8 8 8 7 7 7 6 5 5 6 6 6 4 3 2 2 2 3 4 4 4 3 3
7 5 4 7 7 8 9 9 9 9 9 9 8 8 8 8 8 8 8 7 7 7 7 6 6 6 5 5 5 5 5 5 4 2 1 1 2 2 3 2 2 2 2
6 5 3 3 4 6 7 8 8 7 8 8 7 7 7 7 7 7 7 7 7 7 6 6 5 5 4 4 5 5 5 5 3 1 1 1 1 1 1 2 1 1 1
5 4 4 3 3 2 3 6 6 6 6 7 6 6 6 6 6 6 5 5 6 6 5 5 4 4 3 3 4 5 5 4 2 1 1 1 1 0 1 1 1 0 0
4 3 3 3 3 3 2 3 4 5 5 5 5 6 5 2 2 3 3 5 5 4 4 4 4 4 3 3 3 4 3 1 1 1 1 1 1 1 1 1 1 1 1
4 2 2 3 3 2 2 2 0 2 2 2 2 3 2 2 2 3 3 4 4 3 3 3 3 3 3 1 2 3 1 1 1 0 1 2 2 2 2 2 2 2 2
4 4 2 2 2 2 2 1 1 1 1 2 2 2 2 2 1 2 1 1 1 2 1 1 2 1 1 1 1 1 0 0 0 1 1 3 3 4 3 3 3 3 3
4 4 3 3 2 2 2 1 1 1 1 1 1 2 2 2 1 1 1 1 1 1 1 1 1 1 1 1 0 0 0 0 0 1 2 3 4 4 5 4 4 3 3
4 4 3 3 3 2 2 1 2 1 1 2 1 2 2 2 2 1 1 1 1 1 1 0 0 1 1 1 1 0 1 1 1 1 1 3 4 5 5 5 4 4 4
4 4 3 4 3 3 2 2 1 1 1 2 1 1 2 2 2 2 1 1 1 1 1 1 1 0 0 0 1 1 1 1 1 1 1 2 4 5 5 5 5 5 4
5 4 4 4 3 3 3 2 2 1 1 2 1 1 2 2 2 2 2 1 1 0 1 1 1 0 0 1 1 2 1 1 2 2 2 2 2 4 5 5 5 5 5
5 5 4 3 3 3 2 2 1 1 1 2 1 1 1 2 2 2 2 1 1 1 1 1 0 0 1 1 1 2 2 2 2 2 2 2 1 1 3 5 5 6 6
5 6 4 3 4 3 3 2 1 1 1 1 1 1 1 2 2 2 1 1 1 1 0 0 0 0 0 1 2 2 2 2 2 2 2 2 1 1 1 3 5 6 6
4 5 5 4 3 3 2 2 1 1 1 1 1 1 1 1 2 2 1 1 1 1 1 0 0 0 0 1 2 2 2 2 2 2 2 1 1 1 1 2 2 4 6
3 4 4 4 3 3 3 2 2 1 1 0 1 1 2 1 2 2 1 1 1 1 2 1 1 0 0 1 1 2 3 2 1 1 1 1 1 1 1 2 2 1 2
5 4 4 3 3 3 3 2 2 2 1 1 0 1 1 1 1 1 1 1 1 1 1 1 1 1 0 0 1 1 2 3 2 2 1 1 1 1 2 2 2 2 2
4 4 4 3 3 2 3 2 2 2 1 1 0 0 1 1 1 1 2 1 1 1 2 2 2 3 2 1 0 1 1 2 3 2 2 1 1 2 2 2 2 3 3
4 3 3 3 3 3 3 3 4 3 2 2 1 1 1 1 1 1 2 2 2 2 2 2 2 2 2 1 1 1 1 1 1 2 2 2 2 2 2 3 3 3 3
3 3 3 3 3 2 3 3 3 2 2 1 1 1 1 1 1 1 2 2 2 2 2 2 2 2 2 2 2 1 1 1 1 2 3 3 3 2 2 3 2 2 2
2 2 3 3 2 2 3 3 3 3 2 2 1 2 1 1 1 2 2 2 2 2 2 2 3 3 3 3 2 2 2 2 2 2 3 3 4 3 3 3 2 2 2
Wind_Direction
170 171 151 143 136 130 124 120 116 113 111 107 106 102 100 99 99 99 100 103 106 105 104 99 96 94 92 91 88 84 81 77 77 75 75 77 78 79 78 76 73 65 72
154 155 144 140 137 132 127 123 119 116 113 109 107 106 104 104 101 99 100 101 103 104 105 103 99 97 95 93 90 87 83 81 77 73 69 71 76 78 79 78 78 75 73
136 144 142 137 132 129 128 124 122 120 116 113 109 107 107 107 106 104 102 100 101 100 99 100 100 98 96 93 90 89 87 85 79 71 64 52 63 78 79 78 76 75 74
131 133 138 137 133 130 128 126 124 123 119 116 112 108 107 107 108 106 104 101 100 100 99 99 98 97 96 94 91 87 87 88 80 69 57 45 52 82 81 79 73 71 69
122 126 139 138 138 134 130 128 126 125 122 118 114 112 111 108 107 105 104 101 99 97 98 99 97 93 92 90 87 86 88 88 77 63 52 45 43 87 87 81 74 70 67
117 120 134 134 138 134 131 129 127 127 125 122 119 118 116 113 108 104 101 100 99 98 98 99 95 93 89 84 81 85 91 87 74 60 52 46 37 86 88 82 78 71 65
117 113 127 127 136 138 134 131 128 125 126 126 124 123 120 117 112 107 104 102 102 101 100 103 100 96 91 84 80 85 89 81 74 63 48 41 40 80 89 87 81 76 65
124 117 120 127 126 137 136 133 132 130 127 125 125 124 122 119 118 116 112 108 106 104 101 100 100 94 88 82 78 81 80 73 69 74 49 37 47 80 87 92 84 75 61
108 104 95 118 124 127 134 135 133 134 130 124 122 124 123 121 122 121 116 110 109 107 104 99 102 95 86 77 73 78 77 65 60 61 51 16 31 79 78 80 79 73 60
95 93 89 84 86 101 130 135 133 133 130 125 119 114 115 115 117 115 113 110 109 107 106 101 96 96 86 75 69 72 69 62 50 36 14 327 350 328 10 2 341 297 24
97 93 97 99 93 86 92 110 136 135 130 124 123 117 111 104 104 110 109 107 111 110 107 101 95 86 68 57 62 60 58 65 56 15 304 316 279 271 296 293 290 271 269
144 134 115 116 116 108 102 79 93 130 130 125 119 118 118 112 110 102 100 105 106 105 103 96 82 71 58 39 38 44 50 52 46 303 289 302 278 275 281 277 268 258 266
161 152 147 139 128 119 114 111 81 114 123 125 127 127 116 108 106 96 94 85 76 74 62 59 53 46 57 66 49 37 32 54 353 301 292 295 283 276 277 273 264 255 259
153 158 156 144 131 125 122 127 120 135 143 137 145 136 130 124 119 117 117 107 85 81 79 50 49 44 51 52 84 30 356 310 282 280 281 295 295 287 280 274 266 261 263
151 150 153 144 140 139 125 130 118 149 158 150 141 139 137 136 140 134 132 118 111 113 123 108 85 75 52 5 349 345 305 289 284 281 290 290 293 293 286 280 276 271 272
155 153 146 138 143 135 132 133 134 130 149 125 123 139 133 135 140 137 133 128 143 159 152 159 160 148 255 296 315 298 273 272 272 274 270 287 291 291 287 282 278 276 274
158 148 140 137 127 132 138 144 131 117 136 129 131 130 132 131 136 141 138 140 160 155 127 109 85 69 340 331 308 295 277 272 266 266 266 262 282 292 289 283 281 281 276
149 145 144 135 130 132 137 139 132 120 130 139 138 139 137 126 128 129 132 149 151 120 122 137 127 87 332 322 307 293 286 277 265 263 263 263 271 286 297 298 295 288 287
158 152 146 138 144 143 140 136 139 132 134 139 137 140 139 120 121 126 139 157 142 121 118 161 76 150 297 310 297 291 287 273 262 269 269 265 261 256 273 302 301 295 289
158 153 146 143 145 141 131 119 110 96 109 127 142 146 140 130 129 131 130 146 138 133 151 171 168 105 244 278 306 310 296 282 267 246 250 263 273 270 274 290 294 299 298
146 146 150 147 147 140 135 142 142 155 149 165 164 140 136 139 135 134 143 162 162 168 195 193 181 165 304 346 357 322 310 296 268 252 253 265 282 287 288 282 278 279 295
164 159 151 151 153 159 153 153 149 151 151 173 172 112 130 145 154 147 152 177 193 174 195 203 178 170 264 119 127 3 322 323 318 308 281 254 271 299 300 303 284 276 281
167 168 166 165 158 159 144 125 108 86 76 79 20 171 167 163 168 175 173 181 198 186 207 215 191 181 193 241 180 163 193 252 309 306 309 300 295 289 289 291 282 281 281
188 172 157 158 154 156 147 150 154 165 183 209 206 198 199 181 192 194 188 190 199 200 212 225 202 197 177 209 264 250 227 199 225 299 310 314 307 294 293 299 295 287 284
176 162 154 146 148 153 154 163 167 183 196 182 164 180 217 216 212 217 208 201 207 210 217 225 215 206 195 199 209 232 259 265 227 235 282 301 308 291 287 286 285 286 289
127 136 144 142 153 155 161 170 179 185 181 165 188 210 232 229 220 229 220 213 216 215 221 230 219 212 211 206 207 209 215 220 229 229 258 283 290 292 292 282 276 278 284